Wetbulb
45.22 39.62 33.15 35.52 36.14 38.02 36.92 35.30 34.58 34.84 38.42 40.50 37.79 36.42 38.69 39.52 40.38 41.60 42.48 42.84 43.91 45.34 47.44 49.62 52.55 51.30 50.72 51.83 52.90 53.02 54.59 55.16 54.73 52.62 50.20 49.01 46.10 44.31 43.84 44.17 44.90 45.17 45.74 46.48
41.68 39.03 39.93 41.46 39.53 38.87 36.69 33.12 31.24 34.73 37.76 37.74 34.95 37.22 38.59 39.73 39.89 40.43 41.01 40.94 42.64 44.60 46.27 46.61 47.78 48.52 50.98 49.87 49.88 49.95 51.85 54.36 54.55 53.18 51.66 49.16 46.12 42.88 42.21 42.44 42.14 42.86 43.46 43.84
40.39 40.37 43.04 40.25 37.30 36.35 32.44 33.03 31.79 33.49 35.37 33.94 31.35 32.53 33.88 38.32 38.50 39.49 41.62 41.67 41.86 43.82 46.22 45.23 45.94 46.08 46.64 47.14 47.55 48.53 50.76 52.21 53.54 50.90 48.20 45.01 43.72 42.62 41.59 40.90 40.17 40.37 41.59 41.84
38.89 40.54 40.68 38.27 36.12 36.43 32.36 35.92 36.03 34.44 31.92 28.30 31.59 27.10 31.37 33.87 36.58 37.32 40.01 40.07 40.96 43.24 45.93 45.35 45.19 44.59 45.03 44.59 45.77 47.87 48.98 51.46 51.02 49.51 47.38 46.08 44.58 43.13 41.93 40.28 38.98 38.71 39.79 39.54
34.75 36.93 39.02 38.56 37.68 38.29 34.57 37.74 35.33 33.33 30.30 27.58 27.13 26.62 31.10 29.50 33.16 36.10 37.89 37.48 39.40 40.73 45.55 45.20 44.62 44.69 42.67 42.64 43.49 45.11 46.63 48.30 48.49 48.33 47.55 47.10 44.85 42.59 40.01 38.41 36.89 36.58 36.66 37.60
37.34 40.49 38.93 38.68 38.02 39.20 38.55 34.99 33.79 32.23 29.80 21.94 27.89 27.83 28.31 29.57 34.25 35.29 35.46 36.06 37.32 38.11 42.39 42.56 42.21 42.22 40.59 40.37 41.33 42.78 44.49 45.09 47.04 48.26 47.78 46.86 42.70 39.80 38.51 36.83 35.72 34.61 34.41 34.71
36.10 35.96 38.39 39.60 35.88 38.03 36.10 34.04 24.88 24.30 18.28 22.11 25.87 24.10 31.03 32.22 33.56 35.34 36.48 36.70 37.42 38.15 39.87 39.95 40.31 39.75 38.74 38.87 39.47 41.30 42.67 42.91 44.36 46.59 45.79 44.15 41.12 40.07 38.60 37.11 35.59 33.68 32.88 32.84
30.87 28.50 35.67 38.50 36.89 34.05 32.84 33.36 25.47 21.62 19.24 22.53 26.73 23.78 29.69 33.61 35.58 36.62 36.32 37.41 37.63 37.65 37.87 38.53 38.79 38.03 38.04 38.48 38.57 39.86 41.22 40.99 41.95 43.21 42.48 41.36 40.37 39.26 38.32 37.00 35.12 33.54 32.54 32.80
29.23 29.31 36.94 38.01 38.19 37.53 32.75 30.52 32.79 25.53 18.19 21.19 22.87 26.38 31.74 32.76 34.31 34.64 35.85 36.66 36.63 36.71 36.88 37.40 37.38 37.39 37.26 37.02 37.68 38.55 39.33 38.80 39.52 40.28 39.86 39.47 38.91 38.23 36.52 35.38 33.77 32.52 32.56 33.57
32.79 28.74 34.70 36.65 38.81 38.30 35.16 35.40 28.60 24.96 14.60 14.92 20.34 21.66 26.44 29.60 32.39 34.38 34.86 36.15 36.43 36.81 37.03 36.56 36.57 36.67 36.53 36.89 36.92 36.37 37.35 37.62 36.67 36.37 36.67 36.29 36.03 35.40 34.15 33.01 32.16 31.79 31.78 32.09
36.15 33.43 31.87 35.97 34.19 31.76 30.90 29.06 29.30 29.96 25.17 20.15 16.93 23.53 29.19 29.92 32.80 33.72 34.41 35.98 36.52 36.96 37.02 36.90 36.90 36.86 36.70 36.13 34.96 34.60 34.96 34.69 34.01 34.17 33.82 33.93 33.67 33.39 32.86 32.14 31.27 31.33 31.53 31.52
36.62 33.92 29.39 30.92 34.82 36.07 33.94 30.94 30.26 29.58 21.74 21.37 21.75 23.14 31.52 32.14 32.64 33.84 34.41 35.80 36.09 36.85 37.44 37.62 37.28 36.44 35.22 34.86 33.52 33.19 33.02 33.48 33.38 33.08 32.78 32.93 32.20 32.17 31.94 31.26 31.00 31.19 30.83 30.98
36.96 29.66 24.75 27.66 31.88 33.59 31.56 31.66 29.83 28.24 27.26 23.80 21.09 24.31 32.30 32.19 32.20 33.65 34.57 34.95 36.32 36.98 37.15 37.07 36.01 34.98 34.60 34.01 33.17 32.47 32.45 32.76 32.70 32.11 32.04 31.42 31.47 31.55 31.36 30.69 30.37 30.27 29.97 29.43
39.68 31.61 26.82 23.05 25.16 31.09 29.67 31.33 30.97 30.36 22.70 23.98 23.95 23.73 29.02 32.05 33.06 34.16 35.45 35.93 35.96 37.24 37.60 36.10 35.15 34.84 34.84 34.67 33.60 32.31 32.15 32.46 32.17 31.69 31.13 30.33 30.28 31.26 31.13 30.57 30.18 29.58 29.35 28.58
36.66 26.63 27.58 28.46 28.75 30.39 29.58 31.77 32.37 29.79 30.00 26.81 26.37 26.97 30.96 33.11 34.09 34.23 35.18 36.78 37.09 37.19 37.05 36.73 36.44 36.12 34.95 34.71 34.72 33.52 32.96 32.37 32.19 31.65 31.31 30.98 30.68 30.75 30.41 29.51 29.43 28.95 28.19 28.05
35.23 26.23 28.70 23.29 30.08 30.38 28.87 29.93 32.58 32.45 31.24 29.39 27.36 27.31 32.50 34.03 34.15 34.67 36.31 36.41 37.18 37.36 37.95 37.84 37.63 36.80 36.16 36.04 35.72 35.33 34.12 33.30 32.38 32.11 31.88 31.50 30.21 29.18 28.74 28.84 28.50 27.86 27.28 26.59
32.93 27.70 22.89 17.36 26.66 27.89 21.72 28.35 29.21 30.85 33.45 32.57 28.07 33.71 35.66 33.45 35.15 35.01 36.16 35.93 37.48 38.36 38.93 38.53 38.42 38.41 38.18 37.19 37.07 35.67 35.32 33.24 32.69 31.26 30.32 30.09 29.34 28.51 28.10 28.25 27.65 26.99 26.11 25.80
32.14 29.42 26.34 19.55 21.77 17.00 27.35 29.54 33.50 32.50 33.52 35.60 35.21 34.10 36.72 38.62 38.60 37.16 37.16 37.13 37.53 38.57 38.95 39.30 39.13 38.19 37.74 36.80 36.88 36.83 34.81 32.98 31.87 30.75 30.31 29.68 28.91 28.23 27.26 27.02 26.81 26.14 25.65 24.94
37.41 31.96 24.98 22.28 15.34 24.49 27.73 30.11 30.24 30.20 31.56 35.53 35.12 37.15 36.88 35.52 34.13 35.31 38.61 38.82 39.82 39.97 41.16 41.66 41.43 40.62 38.62 37.52 37.14 35.11 33.11 32.52 31.10 30.73 30.72 29.47 28.88 27.83 27.03 26.72 26.13 25.15 25.35 24.85
38.20 36.43 30.20 19.21 18.69 16.61 26.63 30.06 33.42 34.37 26.98 34.15 36.47 36.93 36.77 35.17 32.76 37.58 38.93 38.69 39.00 39.69 39.56 39.31 38.06 37.25 37.10 36.23 34.45 33.77 32.15 31.05 31.65 31.91 31.68 29.94 29.36 28.49 27.33 27.16 25.23 24.03 23.82 24.99
30.06 30.46 28.11 23.42 20.16 22.38 29.01 29.64 32.72 24.09 27.86 28.32 29.85 33.69 34.05 34.82 37.75 37.83 37.82 37.54 37.74 37.57 37.69 35.93 34.13 35.98 34.11 32.29 33.06 33.16 30.72 31.92 32.34 28.48 28.00 27.92 27.75 28.32 27.64 25.11 23.26 23.18 22.40 23.82
30.43 28.35 27.32 23.51 21.03 20.50 30.31 30.10 29.11 32.81 29.47 29.35 29.83 32.06 33.21 34.27 33.78 34.22 35.41 34.90 34.82 34.66 32.98 32.47 34.18 29.45 25.17 28.60 32.89 29.84 30.77 27.03 25.61 26.07 25.17 24.65 24.69 26.00 25.33 24.78 21.87 21.02 22.37 21.56
29.34 33.01 29.83 27.15 26.46 31.57 30.52 29.96 32.72 31.47 30.82 28.61 29.00 32.10 32.99 32.95 31.82 31.94 31.65 31.17 29.41 30.36 29.23 25.70 29.84 27.16 22.76 22.52 26.79 27.89 24.85 24.48 24.54 24.83 24.60 22.72 22.26 24.19 24.49 23.92 21.65 21.12 21.10 22.76
30.97 31.26 30.72 30.94 29.52 29.88 32.11 31.55 31.44 30.89 31.11 28.91 31.34 32.14 32.38 32.13 31.54 29.75 29.09 28.26 27.93 24.08 24.19 21.68 26.38 26.03 23.86 19.32 22.22 23.25 22.84 20.43 22.14 21.90 19.17 17.89 20.09 19.87 20.53 23.84 24.17 23.88 22.43 21.47
28.45 28.74 29.57 26.35 29.44 32.56 32.09 31.36 32.39 32.35 30.20 28.91 30.32 31.49 32.42 32.00 30.70 29.89 28.54 27.41 25.62 23.51 20.19 19.04 19.65 17.94 18.13 14.56 15.43 12.56 15.88 17.38 18.36 16.62 16.47 16.48 17.75 18.55 19.10 21.32 22.87 23.39 21.29 24.55
29.24 28.21 28.95 29.26 31.25 33.33 34.15 32.40 32.10 29.84 30.44 29.66 28.19 27.37 24.96 27.28 26.72 24.92 23.58 21.33 21.06 20.79 17.42 19.48 16.58 17.21 15.43 14.85 14.97 13.01 9.95 13.76 14.88 16.38 15.80 17.44 18.27 15.99 17.41 17.63 18.56 26.49 27.69 28.29
MSLP
1015.80 1015.67 1014.65 1013.73 1013.27 1013.13 1013.95 1015.01 1015.82 1016.13 1015.95 1016.02 1016.09 1016.22 1016.00 1016.13 1016.66 1017.04 1017.46 1017.52 1017.49 1017.46 1017.22 1017.35 1017.65 1017.96 1018.37 1018.84 1019.14 1019.58 1020.18 1020.83 1021.16 1022.02 1022.82 1023.47 1023.94 1024.37 1024.59 1024.64 1024.57 1024.49 1024.37 1024.32
1015.49 1014.89 1014.62 1013.41 1013.47 1013.39 1014.24 1015.45 1016.36 1016.68 1016.48 1016.43 1016.96 1016.74 1016.45 1016.49 1016.52 1016.70 1017.15 1017.44 1017.37 1017.55 1017.74 1017.84 1018.02 1018.35 1018.51 1018.90 1019.43 1019.89 1020.27 1020.81 1021.23 1021.59 1022.27 1022.90 1023.78 1024.58 1024.87 1024.99 1024.98 1024.97 1024.87 1024.77
1014.42 1014.53 1014.08 1013.81 1013.66 1014.02 1014.89 1015.50 1016.49 1016.77 1017.40 1017.72 1017.57 1017.40 1016.72 1016.14 1016.21 1016.41 1016.46 1016.62 1017.05 1017.39 1017.83 1018.19 1018.47 1018.81 1018.92 1019.33 1019.82 1020.21 1020.51 1020.90 1021.32 1021.68 1022.35 1023.23 1023.92 1024.65 1025.05 1025.30 1025.47 1025.46 1025.30 1025.25
1015.16 1014.85 1014.44 1014.16 1014.11 1014.37 1015.34 1015.63 1016.43 1017.28 1017.84 1018.66 1018.51 1017.98 1016.92 1016.25 1016.13 1016.21 1016.09 1016.54 1016.75 1017.24 1017.76 1018.30 1018.74 1019.12 1019.42 1019.87 1020.22 1020.56 1020.92 1021.26 1021.52 1021.71 1022.21 1022.76 1023.42 1024.35 1024.82 1025.33 1025.68 1025.78 1025.63 1025.66
1015.73 1015.60 1015.13 1015.14 1014.70 1014.89 1016.02 1015.96 1017.11 1018.19 1018.89 1019.32 1019.47 1019.30 1016.87 1016.51 1016.21 1015.84 1015.51 1016.13 1016.61 1016.97 1017.59 1018.32 1018.90 1019.37 1019.93 1020.31 1020.75 1021.09 1021.25 1021.40 1021.60 1021.91 1022.24 1022.81 1023.58 1024.13 1024.80 1025.51 1025.93 1026.10 1026.19 1026.16
1015.56 1015.37 1015.33 1015.21 1015.30 1015.09 1015.81 1016.89 1018.17 1019.10 1019.91 1020.48 1019.59 1019.41 1017.50 1016.63 1015.60 1015.32 1015.45 1016.07 1016.75 1017.40 1018.26 1019.01 1019.59 1019.90 1020.56 1020.92 1021.20 1021.35 1021.46 1021.65 1021.74 1021.98 1022.45 1022.90 1023.61 1024.42 1025.16 1025.82 1026.21 1026.47 1026.65 1026.76
1015.86 1015.61 1015.28 1014.92 1015.58 1016.27 1016.43 1017.21 1019.35 1020.55 1021.26 1020.94 1020.37 1020.01 1017.10 1016.07 1015.65 1015.74 1016.05 1016.72 1017.31 1017.87 1018.56 1019.46 1020.07 1020.41 1020.99 1021.32 1021.51 1021.70 1021.90 1022.05 1022.06 1022.31 1022.77 1023.23 1023.74 1024.26 1024.93 1025.57 1026.13 1026.62 1026.93 1027.04
1015.65 1016.35 1015.27 1015.02 1014.91 1015.49 1016.46 1016.69 1018.35 1019.90 1021.61 1021.41 1021.05 1019.21 1016.45 1015.75 1015.87 1016.11 1016.46 1016.99 1017.74 1018.40 1018.99 1019.61 1020.28 1020.71 1021.21 1021.50 1021.72 1021.93 1022.08 1022.23 1022.43 1022.70 1023.11 1023.54 1024.00 1024.43 1024.98 1025.55 1026.12 1026.50 1026.71 1026.91
1015.46 1015.65 1015.53 1015.09 1015.08 1015.27 1016.36 1016.95 1017.67 1019.69 1022.08 1021.72 1020.13 1018.43 1016.62 1016.00 1016.17 1016.58 1017.08 1017.59 1018.16 1018.78 1019.28 1019.75 1020.39 1020.87 1021.35 1021.68 1021.87 1021.99 1022.27 1022.57 1022.72 1022.91 1023.21 1023.57 1023.95 1024.43 1025.02 1025.63 1026.07 1026.46 1026.70 1026.91
1014.31 1015.70 1016.08 1015.77 1015.66 1015.81 1015.57 1016.58 1017.98 1019.71 1021.41 1021.63 1020.13 1019.06 1017.01 1016.39 1016.39 1017.00 1017.46 1017.90 1018.37 1018.91 1019.35 1019.83 1020.37 1020.89 1021.34 1021.53 1021.77 1022.09 1022.27 1022.51 1022.85 1023.21 1023.50 1023.83 1024.20 1024.66 1025.11 1025.62 1026.09 1026.46 1026.76 1027.09
1013.99 1014.85 1016.88 1016.34 1016.05 1015.89 1016.38 1016.65 1017.88 1018.76 1019.94 1020.14 1020.05 1017.73 1015.70 1015.59 1015.83 1016.23 1016.89 1017.58 1018.07 1018.66 1019.13 1019.65 1020.08 1020.63 1020.94 1021.29 1021.69 1021.99 1022.37 1022.68 1023.08 1023.42 1023.82 1024.11 1024.55 1025.03 1025.52 1025.91 1026.37 1026.62 1026.95 1027.24
1014.06 1015.52 1016.66 1017.13 1016.99 1016.83 1016.50 1016.82 1017.31 1018.39 1019.77 1020.02 1019.55 1016.80 1015.38 1015.37 1015.48 1015.92 1016.54 1017.14 1017.66 1018.08 1018.59 1019.16 1019.74 1020.35 1020.92 1021.30 1021.70 1022.04 1022.44 1022.70 1022.98 1023.32 1023.75 1024.29 1024.74 1025.21 1025.71 1026.23 1026.74 1026.97 1027.13 1027.34
1013.60 1015.25 1016.93 1017.91 1017.86 1017.33 1017.20 1017.26 1017.61 1017.90 1018.54 1018.88 1018.90 1016.26 1015.32 1015.18 1015.37 1015.68 1016.40 1016.88 1017.37 1017.84 1018.42 1018.98 1019.60 1020.18 1020.67 1021.12 1021.36 1021.74 1022.20 1022.63 1023.03 1023.40 1023.81 1024.45 1024.93 1025.37 1025.81 1026.25 1026.62 1026.85 1027.22 1027.63
1013.25 1014.82 1015.56 1015.86 1015.69 1016.37 1017.41 1017.21 1017.37 1017.48 1018.21 1017.80 1016.77 1016.13 1015.33 1015.20 1015.48 1015.67 1016.06 1016.49 1017.17 1017.76 1018.18 1018.83 1019.46 1019.76 1020.13 1020.65 1021.08 1021.48 1021.89 1022.21 1022.77 1023.16 1023.68 1024.21 1024.58 1025.11 1025.53 1025.86 1026.24 1026.79 1027.17 1027.37
1013.71 1015.07 1015.97 1016.32 1016.29 1016.27 1016.29 1016.48 1016.81 1016.47 1016.36 1016.40 1015.52 1015.83 1015.05 1014.78 1014.87 1015.23 1015.78 1016.34 1016.91 1017.35 1017.96 1018.29 1018.75 1019.08 1019.48 1020.09 1020.62 1021.03 1021.51 1021.90 1022.33 1022.94 1023.34 1023.72 1024.31 1024.86 1025.51 1026.12 1026.70 1026.84 1027.12 1027.48
1014.41 1015.55 1016.43 1017.31 1017.01 1016.70 1016.48 1015.86 1015.42 1015.23 1015.62 1015.49 1015.37 1015.26 1014.66 1014.07 1014.49 1015.06 1015.45 1015.88 1016.21 1016.61 1016.94 1017.27 1017.87 1018.33 1018.71 1019.27 1019.79 1020.36 1020.95 1021.40 1022.05 1022.65 1022.92 1023.45 1024.12 1024.65 1025.24 1025.86 1026.31 1026.78 1026.99 1027.28
1014.63 1015.72 1017.07 1018.24 1017.83 1017.25 1016.68 1014.55 1014.81 1014.93 1014.65 1014.56 1014.14 1013.86 1013.74 1013.93 1014.26 1014.22 1014.51 1015.11 1015.30 1015.50 1015.96 1016.26 1016.61 1016.96 1017.58 1018.04 1018.75 1019.45 1020.00 1020.69 1021.43 1022.12 1022.58 1023.16 1023.84 1024.61 1024.98 1025.67 1026.06 1026.58 1026.88 1027.28
1014.70 1015.88 1017.29 1018.63 1018.55 1017.33 1014.40 1013.38 1012.96 1013.35 1013.29 1013.07 1012.73 1012.84 1012.72 1012.73 1012.77 1013.11 1013.63 1013.82 1014.32 1014.76 1014.87 1015.32 1015.84 1016.39 1016.89 1017.44 1018.13 1018.87 1019.62 1020.28 1020.93 1021.72 1022.22 1022.88 1023.54 1024.14 1024.83 1025.35 1025.48 1026.09 1026.62 1027.09
1014.92 1015.79 1017.74 1018.43 1018.55 1016.07 1014.13 1013.52 1013.27 1013.33 1012.39 1012.29 1012.22 1012.19 1012.30 1012.45 1012.81 1012.60 1012.83 1013.14 1013.29 1013.46 1013.77 1014.11 1014.44 1015.06 1015.99 1016.65 1017.35 1018.21 1019.12 1019.85 1020.93 1021.38 1021.71 1022.40 1023.05 1023.65 1024.46 1025.00 1025.35 1026.00 1026.41 1026.57
1015.21 1015.78 1016.90 1018.45 1017.98 1016.10 1013.79 1012.58 1012.27 1012.51 1011.94 1011.03 1011.15 1011.29 1011.68 1012.55 1012.58 1011.99 1012.10 1012.21 1012.53 1012.66 1013.10 1013.54 1014.20 1015.03 1015.75 1016.49 1017.34 1018.33 1019.15 1020.10 1020.41 1020.37 1020.73 1021.65 1022.32 1023.07 1023.67 1024.09 1024.78 1025.37 1025.66 1025.90
1015.54 1015.90 1016.30 1017.39 1017.13 1015.24 1013.14 1012.98 1012.82 1012.86 1012.23 1011.23 1011.32 1011.36 1011.69 1012.18 1011.69 1011.73 1011.62 1011.95 1012.20 1012.67 1013.26 1013.74 1014.63 1015.39 1015.84 1016.49 1017.30 1018.36 1019.24 1019.46 1019.13 1019.81 1020.43 1021.40 1021.97 1022.47 1022.94 1023.63 1024.16 1024.74 1025.35 1025.80
1015.24 1015.41 1015.97 1016.82 1016.69 1015.22 1013.45 1013.55 1013.17 1012.02 1011.73 1011.39 1011.42 1011.63 1011.75 1011.98 1012.17 1012.24 1012.62 1013.05 1013.59 1013.54 1014.17 1014.70 1015.73 1016.54 1016.94 1017.01 1017.62 1018.69 1019.24 1019.51 1019.72 1020.26 1021.00 1021.55 1021.92 1022.49 1023.04 1023.26 1023.83 1024.48 1025.07 1025.65
1015.36 1015.16 1015.59 1016.00 1014.99 1013.86 1013.55 1013.02 1012.57 1012.29 1011.86 1011.63 1011.71 1011.74 1011.86 1012.27 1012.95 1013.16 1013.86 1014.14 1014.82 1015.32 1015.73 1015.96 1016.36 1017.28 1017.35 1017.83 1017.89 1019.09 1019.31 1019.59 1019.74 1020.35 1021.04 1021.12 1021.05 1021.33 1021.76 1022.58 1023.21 1023.83 1024.32 1024.57
1015.37 1015.32 1015.62 1015.88 1014.73 1014.31 1013.88 1013.86 1013.65 1012.97 1012.56 1012.20 1012.45 1012.64 1012.65 1013.15 1013.70 1014.42 1014.94 1015.44 1015.96 1016.51 1017.10 1017.42 1017.64 1018.10 1018.49 1018.75 1018.72 1018.99 1019.27 1019.60 1020.13 1020.38 1020.78 1021.43 1021.43 1021.52 1021.55 1021.87 1022.28 1022.70 1023.24 1023.82
1015.35 1015.47 1015.37 1015.08 1014.79 1014.47 1014.23 1014.17 1013.96 1013.70 1013.45 1013.39 1013.39 1013.31 1013.49 1013.95 1014.83 1015.00 1015.83 1016.66 1017.14 1017.19 1017.96 1018.10 1019.06 1019.78 1019.91 1019.81 1019.80 1019.88 1019.62 1019.79 1020.23 1020.48 1021.10 1021.29 1021.55 1021.84 1022.07 1021.87 1021.92 1022.10 1022.31 1022.56
1014.90 1014.54 1014.77 1014.22 1013.94 1014.37 1014.27 1014.28 1014.12 1014.74 1014.30 1014.39 1014.40 1015.01 1015.62 1015.14 1015.65 1016.42 1017.50 1017.75 1018.02 1018.90 1019.38 1019.25 1019.76 1020.50 1020.49 1020.63 1020.89 1020.86 1020.36 1020.67 1021.00 1021.03 1021.27 1021.42 1021.39 1021.66 1021.88 1022.12 1022.22 1021.84 1021.96 1022.14
Wind_Speed
3 3 7 5 4 7 9 6 6 1 1 3 5 5 6 3 3 7 8 8 9 9 3 2 5 6 8 7 11 11 11 7 9 6 5 3 4 3 4 4 5 5 5 5
5 11 6 5 3 7 6 7 3 2 4 4 2 9 6 5 6 8 10 9 10 5 5 4 6 6 9 9 8 8 8 8 5 5 3 4 4 3 4 2 5 5 5 6
11 2 4 3 5 8 3 8 5 6 4 3 1 7 4 7 5 5 9 7 7 9 9 6 7 6 7 8 7 7 7 6 5 7 7 6 5 4 3 3 3 4 5 6
1 3 8 2 4 5 5 4 7 10 6 4 2 6 5 5 9 6 11 9 9 9 6 5 7 6 7 6 6 6 6 6 5 7 6 6 4 4 3 3 2 3 5 6
4 8 13 7 4 3 3 6 6 5 6 4 1 2 9 1 6 10 11 9 9 9 10 11 9 7 4 6 6 6 6 6 6 6 6 5 5 3 3 4 5 5 4 5
2 2 3 6 4 3 11 8 9 5 4 1 6 6 6 6 10 5 1 2 5 6 5 5 5 7 6 5 6 6 7 4 5 6 7 7 8 8 6 4 4 3 2 3
3 4 1 3 12 4 2 6 3 3 3 5 2 2 8 5 6 4 6 6 5 5 7 7 8 8 7 7 6 4 5 5 3 5 5 6 7 8 8 6 4 5 3 1
5 3 4 1 6 10 7 7 8 8 4 3 1 9 8 5 5 4 3 7 5 5 4 7 7 7 7 7 7 6 7 5 4 5 6 6 7 5 4 5 4 4 3 4
6 1 3 3 3 4 5 5 5 8 2 3 5 8 10 3 5 2 6 6 7 5 5 7 7 7 7 6 7 7 6 5 5 6 6 6 6 7 6 6 5 4 4 3
5 7 2 1 2 4 4 9 5 4 5 4 4 6 7 5 7 6 7 8 7 5 6 6 7 7 6 6 6 5 6 7 6 6 5 5 6 6 6 6 6 6 5 5
2 4 1 4 4 5 3 4 4 5 4 6 1 8 7 6 9 12 10 8 9 8 7 8 7 7 7 5 6 7 7 7 6 6 5 7 6 6 5 5 5 5 5 5
5 4 4 2 3 3 1 5 5 7 6 1 3 9 0 5 7 7 7 8 8 7 8 7 8 7 7 7 6 7 6 7 7 6 6 6 6 6 6 5 5 5 6 5
7 2 5 4 5 4 4 4 4 5 3 7 6 7 2 3 2 5 8 8 8 7 7 7 6 7 7 7 7 7 7 7 6 6 6 6 6 6 6 6 6 6 6 5
6 4 5 8 3 8 6 6 5 5 5 6 8 3 4 6 6 5 6 6 6 7 7 6 7 7 7 7 7 7 7 7 7 7 7 8 8 7 6 7 7 6 5 6
6 3 1 2 1 3 6 12 14 16 12 12 7 10 9 8 10 7 6 4 6 8 8 9 9 9 8 8 7 7 7 7 7 8 7 8 6 6 6 5 5 5 5 5
4 3 4 2 2 5 3 10 18 20 13 11 1 6 7 6 5 5 9 9 9 9 9 10 10 9 10 11 10 9 9 9 8 9 9 7 8 7 7 6 6 6 6 6
7 6 4 4 3 3 8 14 13 9 14 13 18 15 6 4 9 11 12 9 12 11 11 12 14 13 12 12 11 13 11 8 11 8 7 8 7 7 7 7 7 7 7 5
6 7 3 3 1 5 5 2 10 18 14 23 16 6 14 19 12 9 8 9 10 10 10 10 9 8 10 8 10 8 8 8 9 8 8 7 8 7 7 8 9 7 5 6
5 5 3 5 3 7 6 5 8 12 16 15 20 20 12 6 1 7 8 10 12 11 12 12 11 11 8 11 10 10 8 7 7 9 10 8 9 9 9 9 8 5 6 6
6 5 3 3 6 10 6 1 5 6 9 5 13 17 16 7 12 11 8 9 11 10 6 9 9 5 7 8 8 8 7 8 11 10 11 8 9 9 10 9 8 4 3 4
3 5 9 4 4 9 6 1 3 6 6 1 1 6 7 10 7 3 4 4 4 5 6 5 6 7 3 5 8 8 7 12 8 5 6 6 7 9 8 6 5 6 5 5
5 4 4 3 2 8 6 3 8 5 2 3 3 2 5 4 1 2 5 5 6 7 7 5 6 6 3 4 8 6 7 3 5 6 5 6 6 5 5 8 5 5 6 6
4 4 3 6 6 2 4 2 3 0 2 2 1 2 2 4 1 4 4 7 6 6 5 3 7 6 4 3 5 6 6 5 6 6 6 6 8 9 8 9 8 6 7 7
2 1 3 3 3 3 6 6 5 3 5 2 1 3 5 6 6 6 6 5 6 3 4 3 5 6 5 2 3 3 4 3 4 4 3 3 5 5 6 5 6 7 8 7
4 5 5 4 5 6 3 1 6 6 5 3 2 3 4 7 6 6 6 6 4 4 3 5 6 4 5 5 4 2 3 5 4 3 2 3 2 4 4 5 6 7 4 8
5 8 5 6 8 6 7 3 4 3 8 6 1 1 2 3 6 5 5 2 4 4 1 5 6 4 4 5 5 4 2 2 3 3 3 4 4 2 2 3 4 11 13 14
Wind_Direction
119 126 224 190 154 141 124 113 123 62 52 154 192 256 237 211 203 210 215 217 225 233 251 205 176 148 129 139 144 148 144 146 135 131 123 112 113 90 59 51 53 50 48 43
117 217 236 155 122 118 111 122 108 62 23 80 170 257 267 242 239 208 208 221 225 208 215 174 142 150 159 151 142 137 143 152 148 123 120 125 135 99 99 76 53 45 48 42
181 304 189 166 114 110 82 145 166 146 124 58 76 299 234 256 237 228 244 224 212 209 199 172 155 148 133 140 146 145 150 147 136 116 111 88 86 74 83 55 54 33 55 54
131 5 148 8 152 123 134 158 120 130 109 186 34 261 267 238 251 233 243 221 216 198 180 164 160 152 148 137 126 126 133 141 141 147 130 150 144 144 165 132 116 77 58 60
147 163 154 216 205 157 119 98 107 103 90 95 301 91 266 11 262 241 238 228 210 206 184 181 177 149 125 125 129 134 137 135 142 150 148 143 126 109 109 110 112 86 62 62
74 216 135 173 48 101 144 89 52 57 79 343 208 158 262 196 212 259 205 164 195 191 164 129 108 120 126 127 137 149 148 152 160 162 156 150 145 138 132 134 124 119 88 62
356 340 292 161 92 29 79 116 34 19 358 219 4 197 254 243 247 248 270 199 175 133 146 150 158 165 151 160 156 149 158 159 157 160 156 155 144 145 146 152 152 148 136 88
148 180 194 167 141 169 174 162 155 177 199 196 110 231 244 208 286 278 236 165 162 150 145 169 173 158 164 170 170 167 173 151 132 136 140 133 136 141 141 148 146 155 149 136
139 328 349 59 79 164 186 176 127 102 35 67 220 293 292 247 252 170 146 155 182 180 177 178 172 176 172 171 184 181 162 128 141 147 143 144 144 143 148 149 140 148 131 125
149 112 341 66 154 40 150 148 82 12 127 258 266 274 245 240 236 213 197 209 196 193 178 176 175 177 187 188 187 166 159 166 159 143 140 140 143 141 142 139 150 145 133 123
105 73 93 70 290 161 122 145 70 118 144 171 217 259 221 228 211 202 209 210 199 199 193 186 190 195 194 185 175 174 170 153 155 149 144 145 151 144 136 142 146 143 130 139
171 119 116 146 344 306 355 167 159 187 203 209 146 272 195 268 261 207 212 214 215 201 194 189 190 188 184 185 175 179 171 165 166 161 156 158 143 143 147 142 145 150 150 145
171 100 97 45 340 344 224 184 128 110 82 194 156 255 325 311 286 213 211 214 208 194 189 191 179 184 187 188 181 176 176 179 170 161 157 153 158 161 165 157 157 161 149 145
100 151 166 188 184 136 190 180 170 146 182 153 216 284 272 246 238 234 229 220 202 196 191 186 186 196 193 188 182 179 182 175 172 167 169 175 177 177 169 169 168 159 164 158
106 193 157 45 125 167 178 187 189 207 195 197 184 208 256 227 219 222 225 211 199 200 198 198 198 199 190 187 186 184 188 178 176 183 184 190 176 168 163 157 169 161 166 171
134 171 126 347 36 182 251 222 212 213 217 240 313 263 241 280 138 169 219 209 215 210 209 200 201 192 194 194 193 190 192 190 173 192 199 169 171 174 175 170 171 172 175 181
140 124 91 248 352 97 297 225 208 224 216 207 230 220 227 222 213 212 219 199 213 211 206 204 203 202 200 194 184 195 191 165 186 194 175 181 173 179 178 172 173 184 185 180
135 117 84 149 50 249 263 329 206 203 218 221 238 205 214 229 232 230 202 199 220 213 207 209 198 196 200 181 189 175 169 176 182 192 183 178 180 182 172 183 189 184 177 188
185 124 120 152 218 292 278 194 161 179 244 223 229 235 232 242 258 266 221 205 213 209 212 208 199 203 175 184 182 172 176 170 168 194 198 186 180 185 186 197 191 176 177 189
206 167 159 137 179 217 248 311 143 124 277 225 214 229 225 152 238 253 219 210 222 221 194 187 185 159 164 189 157 156 165 171 206 199 202 181 184 186 194 190 179 168 177 184
168 153 189 162 229 284 242 154 151 114 230 156 189 239 204 198 223 236 208 192 193 198 199 135 157 172 175 129 145 179 162 204 207 149 148 170 182 194 190 161 161 168 173 169
162 175 160 105 147 264 154 68 169 223 181 186 199 237 201 203 166 78 53 58 52 66 48 47 109 79 25 123 148 153 186 90 113 124 146 174 178 173 173 175 169 163 169 189
192 188 172 186 217 303 262 1 278 344 197 241 268 250 125 117 112 69 81 71 61 59 60 22 119 119 58 59 124 142 183 156 148 156 189 191 181 185 178 178 179 176 183 198
203 188 144 22 302 309 293 316 290 319 320 330 207 195 154 127 122 110 106 91 75 49 57 29 95 95 93 40 76 105 147 134 138 168 194 198 184 183 183 188 187 190 193 195
188 128 182 242 300 319 26 206 288 292 287 284 248 204 136 134 147 128 117 114 114 91 58 67 57 41 38 2 25 3 141 144 156 181 198 193 178 188 194 214 200 203 212 195
188 177 177 222 191 163 250 260 342 310 264 238 160 26 338 114 126 104 99 72 84 77 57 77 83 77 20 30 17 353 355 148 144 194 201 211 198 183 181 183 241 234 228 219